Regional Weather Roundup
Issued by NWS

Home | Current Version | Previous Version | Text Only | Print | Product List | Glossary Off
Versions: 1 2 3 4 5 6 7 8 9 10 11 12 13 14 15 16 17 18 19 20 21 22 23 24 25 26 27 28 29 30 31 32 33 34 35 36 37 38 39 40 41 42 43 44 45 46 47 48 49 50

000
ASUS43 KLOT 251408
RWRIL

ILLINOIS REGIONAL WEATHER ROUNDUP
NATIONAL WEATHER SERVICE CHICAGO/ROMEOVILLE IL
900 AM CDT MON JUL 25 2016

NOTE: "FAIR" INDICATES FEW OR NO CLOUDS BELOW 12,000 FEET WITH NO
SIGNIFICANT WEATHER AND/OR OBSTRUCTIONS TO VISIBILITY.

* THESE STATIONS ARE NOT UNDER NWS QUALITY CONTROL. THEY ALSO MAY NOT
  REPORT WEATHER SUCH AS PRECIPITATION OR FOG.

ILZ001-002-007-009-015-016-024-251500-
NORTHWEST ILLINOIS

CITY           SKY/WX    TMP DP  RH WIND       PRES   REMARKS
MOLINE         MOSUNNY   77  66  68 N7        30.02F
STERLING*      MOSUNNY   77  68  73 N8        30.02F
SAVANNA*       CLOUDY    77  67  72 NW6       30.03S
$$

ILZ003-004-008-010-011-017-018-251500-
NORTH CENTRAL ILLINOIS

CITY           SKY/WX    TMP DP  RH WIND       PRES   REMARKS
ROCKFORD       MOSUNNY   78  67  68 NW7       30.03R HX  80
FREEPORT*      SUNNY     75  66  72 NW5       30.05R
ROCHELLE*      CLOUDY    75  68  79 NW7       30.02F
DE KALB*       CLOUDY    76  68  75 N7        30.02S
$$

ILZ005-006-012>014-019>023-251500-
NORTHEAST ILLINOIS

CITY           SKY/WX    TMP DP  RH WIND       PRES   REMARKS
CHICAGO-OHARE  PTSUNNY   78  65  63 N13       29.99R HX  80
CHICAGO-MIDWAY PTSUNNY   81  66  60 NW10      29.99R HX  83
AURORA         PTSUNNY   77  68  73 N10       30.00S
LANSING*       SUNNY     80  65  61 N8        30.00R HX  81
JOLIET*        MOSUNNY   80  69  69 N5        30.00R HX  83
WAUKEGAN       MOSUNNY   79  65  62 VRB7      29.97S HX  81
DUPAGE AIRPORT MOSUNNY   79  65  62 N12       29.99S HX  81
KANKAKEE*      MOSUNNY   78  72  81 NW7       30.01F HX  80
WHEELING       CLOUDY    79  66  64 N6        30.00R HX  81
MORRIS*        MOSUNNY   77  69  78 CALM      30.00R
ROMEOVILLE*    MOSUNNY   78  66  65 N7        30.01R HX  80
NORTHERLY ISL    N/A     79  62  56 N8          N/A  HX  80
$$

LMZ740>746-251500-
SOUTHERN LAKE MICHIGAN

STATION/POSITION SKY/WX   TEMP    WIND        PRES    VSBY  WAVE
                          AIR SEA DIR/SP/G                  HT/PER
                          (F)     (DEG/KT/KT) (MB)    (MI)  (FT/S)
SOUTHERN BUOY              72 72  320/ 14/ 17 1013.8S         2/ 4
WILMETTE HARBOR            69 64  340/  6/  6   N/A           1
HARRISON CRIB              76     320/ 14/ 15   N/A
BURNHAM HARBOR             79      20/  7/ 13   N/A
CALUMET HARBOR             78     310/  3/  7 1014.2R
BURNS HARBOR               74     310/  7/  9 1015.6R
MICHIGAN CITY              75     290/  5/  6   N/A
MICHIGAN CITY 6N           75 73  330/ 10/ 14   N/A           2/ 3
ST. JOSEPH                 74 74  320/  8/ 12 1014.8R         3/ 4
$$

ILZ025>027-034>036-040-047-049-050-058-095>099-251500-
WEST-CENTRAL ILLINOIS

CITY           SKY/WX    TMP DP  RH WIND       PRES   REMARKS
QUINCY         CLOUDY    77  70  79 N12       30.00S
GALESBURG*     CLOUDY    74  69  83 N9        30.03S
MACOMB*        CLOUDY    73  70  88 N8        30.03S
JACKSONVILLE*  PTSUNNY   75  71  87 CALM      30.02R
PITTSFIELD*    CLOUDY    74  71  89 W5        30.02R
$$

ILZ028>032-037-038-041>044-048-051>054-059>061-251500-
CENTRAL ILLINOIS

CITY           SKY/WX    TMP DP  RH WIND       PRES   REMARKS
PONTIAC        MOSUNNY   78  74  88 N7        30.00F
BLOOMINGTON    CLOUDY    76  72  87 N13       30.01S
DECATUR        CLOUDY    76  72  87 S6        30.03R
PEORIA         PTSUNNY   77  71  82 NE8       29.99F
LACON*         MOSUNNY   75  69  79 N8        30.00S
LINCOLN*       CLOUDY    76  73  93 NW3       29.99R
SPRINGFIELD    CLOUDY    76  72  87 S6        30.03R
TAYLORVILLE    CLOUDY    75  73  93 MISG      30.03R
$$

ILZ033-039-045-046-055>057-062-063-251500-
EAST-CENTRAL ILLINOIS

CITY           SKY/WX    TMP DP  RH WIND       PRES   REMARKS
CHAMPAIGN      PTSUNNY   76  71  85 CALM      30.02R
MATTOON        MOSUNNY   75  71  87 SE5       30.01R
PARIS*         CLOUDY    76  71  84 CALM      30.02S
$$

ILZ079-100>102-251500-
SOUTHWEST ILLINOIS

CITY           SKY/WX    TMP DP  RH WIND       PRES   REMARKS
ALTON          CLOUDY    75  73  94 W7        30.01R
BELLEVILLE     PTSUNNY   79  77  95 CALM      29.99R HX  83
CAHOKIA*       CLOUDY    76  72  87 CALM      30.00R
SPARTA*        PTSUNNY   79  75  87 SE3       30.01R HX  82
$$

ILZ064>066-069>071-074>076-080>082-084>086-088>090-092>094-251500-
SOUTH-CENTRAL ILLINOIS

CITY           SKY/WX    TMP DP  RH WIND       PRES   REMARKS
CARBONDALE     PTSUNNY   82  77  84 SE5       30.00R HX  90
CAIRO*         CLOUDY    82  79  92 S6        30.00S HX  91
EFFINGHAM*     CLOUDY    78  74  90 SE3       30.03R
MARION         CLOUDY    82  79  89 SE8       30.01R HX  93
MT. VERNON     PTSUNNY   81  70  69 CALM      29.99S HX  84
CENTRALIA*     CLOUDY    81  74  81 SE5       30.00R HX  86
SALEM*         CLOUDY    81  73  78 E3        30.00S HX  85
METROPOLIS*    CLOUDY    84  79  84 CALM      30.01S HX  95
$$

ILZ067-068-072-073-078-083-087-091-251500-
SOUTHEAST ILLINOIS

CITY           SKY/WX    TMP DP  RH WIND       PRES   REMARKS
LAWRENCEVILLE  CLOUDY    78  72  81 NW6       30.02R HX  80
FLORA*         CLOUDY    79  73  82 E3        30.01S HX  82
FAIRFIELD*     CLOUDY    79  73  82 CALM      30.00S HX  82
HARRISBURG*    MOSUNNY   80  77  90 S5        30.01R HX  87
ROBINSON*      CLOUDY    76  71  83 CALM      30.02F
CARMI*         MOSUNNY   79  74  85 SE5       30.00R HX  83
$$

ABBREVIATIONS USED IN REMARKS
   TC - TEMPERATURE IN CELSIUS
  WCI - WIND CHILL INDEX
   HX - HEAT INDEX
  VSB - VISIBILITY
$$





USA.gov is the U.S. government's official web portal to all federal, state and local government web resources and services.